Location: �perlecques
(50.8057°N, 2.1521°E)
Time: 08:45:15
(UTC+00:00)

A-11 Canister half - All Passes

Search period start: 24 July 2021 00:00
Search period end: 03 August 2021 00:00
Orbit: 1513 x 1687 km, 47.2° (Epoch: 23 July)

Date Brightness Start Highest point End Pass type
(mag) Time Alt. Az. Time Alt. Az. Time Alt. Az.
24 Jul - 00:26:10 10° W 00:35:51 51° SSW 00:45:25 10° SE visible
24 Jul - 02:32:08 10° W 02:39:05 21° SW 02:45:58 10° S visible
24 Jul - 17:51:51 10° SSW 18:00:04 31° SE 18:08:29 10° E daylight
24 Jul - 19:53:59 10° SW 20:03:47 62° SSE 20:13:45 10° E daylight
24 Jul - 21:58:22 10° W 22:08:27 73° S 22:18:35 10° ESE visible
25 Jul - 00:03:12 10° W 00:12:57 53° SSW 00:22:36 10° SE visible
25 Jul - 02:09:00 10° W 02:16:16 23° SW 02:23:27 10° S visible
25 Jul - 17:29:12 10° S 17:37:14 29° SE 17:45:26 10° E daylight
25 Jul - 19:31:08 10° SW 19:40:52 60° SSE 19:50:49 10° E daylight
25 Jul - 21:35:26 10° W 21:45:30 74° S 21:55:39 10° E visible
25 Jul - 23:40:15 10° W 23:50:02 54° SSW 23:59:45 10° SE visible
26 Jul - 01:45:55 10° W 01:53:26 24° SW 02:00:53 10° S visible
26 Jul - 17:06:34 10° S 17:14:24 28° SE 17:22:23 10° E daylight
26 Jul - 19:08:17 10° SW 19:17:57 58° SSE 19:27:51 10° E daylight
26 Jul - 21:12:30 10° W 21:22:34 74° S 21:32:42 10° E visible
26 Jul - 23:17:18 10° W 23:27:07 56° SSW 23:36:54 10° SE visible
27 Jul - 01:22:51 10° W 01:30:36 26° SW 01:38:18 10° S visible
27 Jul - 16:43:58 10° S 16:51:34 26° SE 16:59:20 10° E daylight
27 Jul - 18:45:26 10° SW 18:55:03 57° SSE 19:04:53 10° E daylight
27 Jul - 20:49:34 10° W 20:59:37 74° S 21:09:46 10° E visible
27 Jul - 22:54:21 10° W 23:04:12 58° SSW 23:14:02 10° SE visible
28 Jul - 00:59:48 10° W 01:07:46 27° SW 01:15:42 10° S visible
28 Jul - 16:21:23 10° S 16:28:45 25° SE 16:36:15 10° E daylight
28 Jul - 18:22:35 10° SW 18:32:08 55° SSE 18:41:55 10° E daylight
28 Jul - 20:26:38 10° W 20:36:39 74° S 20:46:49 10° E visible
28 Jul - 22:31:25 10° W 22:41:17 59° SSW 22:51:10 10° SE visible
29 Jul - 00:36:46 10° W 00:44:56 29° SW 00:53:03 10° S visible
29 Jul - 15:58:50 10° S 16:05:55 23° SE 16:13:10 10° E daylight
29 Jul - 17:59:46 10° SW 18:09:14 53° SSE 18:18:57 10° E daylight
29 Jul - 20:03:44 10° WSW 20:13:42 73° S 20:23:52 10° E visible
29 Jul - 22:08:29 10° W 22:18:22 61° SSW 22:28:17 10° SE visible
30 Jul - 00:13:43 10° W 00:22:05 30° SW 00:30:24 10° SSE visible
30 Jul - 15:36:19 10° S 15:43:07 22° SE 15:50:03 10° E daylight
30 Jul - 17:36:57 10° SW 17:46:20 52° SSE 17:55:59 10° E daylight
30 Jul - 19:40:49 10° WSW 19:50:46 73° S 20:00:55 10° E daylight
30 Jul - 21:45:32 10° W 21:55:26 62° SSW 22:05:24 10° ESE visible
30 Jul - 23:50:43 10° W 23:59:14 32° SW 00:07:43 10° SSE visible
31 Jul - 15:13:50 10° S 15:20:18 20° SE 15:26:55 10° E daylight
31 Jul - 17:14:08 10° SW 17:23:26 50° SSE 17:33:00 10° E daylight
31 Jul - 19:17:54 10° WSW 19:27:49 73° S 19:37:57 10° E daylight
31 Jul - 21:22:35 10° W 21:32:30 64° SSW 21:42:30 10° ESE visible
31 Jul - 23:27:43 10° W 23:36:22 34° SW 23:45:01 10° SSE visible
01 Aug - 14:51:23 10° SSE 14:57:30 19° SE 15:03:44 10° E daylight
01 Aug - 16:51:21 10° SW 17:00:33 48° SSE 17:10:03 10° E daylight
01 Aug - 18:55:00 10° WSW 19:04:52 72° S 19:15:00 10° E daylight
01 Aug - 20:59:40 10° W 21:09:35 65° SSW 21:19:36 10° ESE visible
01 Aug - 23:04:43 10° W 23:13:30 35° SW 23:22:18 10° SSE visible
02 Aug - 14:28:59 10° SSE 14:34:43 17° SE 14:40:32 10° E daylight
02 Aug - 16:28:34 10° SW 16:37:40 46° SSE 16:47:04 10° E daylight
02 Aug - 18:32:05 10° WSW 18:41:56 72° S 18:52:02 10° E daylight
02 Aug - 20:36:43 10° W 20:46:38 66° SSW 20:56:41 10° ESE visible
02 Aug - 22:41:44 10° W 22:50:38 37° SW 22:59:34 10° SSE visible
